Weather in Kamenishchi

Russia / Nizhny Novgorod Oblast'     55°35′34″N   45°00′49″E
temp.,
°C
wind,
m/s
gust,
m/s
humid.,
%
clouds,
%
prec.,
mm/h
press.,
hPa
HPBL,
m
28 january, thu
thu2800:000s71494100 0.4 1013497
03:000s71295100 1.5 1012427
06:00−3s61192100 0.2 1012412
09:00−2s51192100 0.9 1012474
12:00−2s51090100 0.0 1012448
15:00−3sse4991100 0.0 1011396
18:00−5sse4119299 0.0 1011292
21:00−7sse499499 0.0 1011261
29 january, fri
fri2900:00−8sse489485 0.0 1011228
03:00−8se359692 0.0 1010192
06:00−7se4895100 0.1 1009265
09:00−6se41095100 0.1 1008396
12:00−3sse599399 0.1 1007486
15:00−2s599698 0.5 1006450
18:00−3sse4995100 0.1 1005254
21:00−2sse4995100 0.2 1004426
30 january, sat
sat3000:00−3sse51194100 0.0 1004289
03:00−5s41194100 0.0 1003280
06:00−4s6109482 0.0 1001484
09:00−3sse6119291 0.1 1000487
12:00−3sse51095100 0.3 999559
15:00−2ese2498100 2.0 999234
18:00−4wsw239792 0.4 100130
21:00−7sw5108985 0.5 1005249
31 january, sun
sun3100:00−8s4893100 0.0 1006199
03:00−7sse41093100 0.0 1007236
06:00−5sse51290100 0.0 1004347
09:000s71598100 0.4 1002671
12:00+1sse81787100 0.1 1001744
15:00+1sse91876100 0.1 9981103
18:00−1sse111994100 0.7 9951124
21:00−1sse101792100 1.8 9921015
1 february, mon
mon100:000s91596100 0.5 990970
03:00−3sw111890100 1.1 993819
06:00−5wsw101788100 0.2 998937
09:00−7wsw91688100 0.3 1004783
12:00−6wsw81488100 0.1 1009810
15:00−6wsw61290100 0.1 1012627
18:00−8sw4109399 0.0 1015261
21:00−10ssw359593 0.0 101794